This is the latest recevied weather packets stored in our database for station/object K7AEL. If no packets are shown the sender has not sent any weather packets the latest 10 day(s).
| Time | Temp. | Humidity | Pressure | Rain* | Wind** | Luminosity | Snow |
|---|---|---|---|---|---|---|---|
| 1777229990 | 23.33° C | 36% | 1012.8 hPa | 0 mm | - | 826 W/m² | - |
| 1777229686 | 23.89° C | 36% | 1013 hPa | 0 mm | - | 176 W/m² | - |
| 1777229383 | 23.89° C | 35% | 1012.7 hPa | 0 mm | - | 814 W/m² | - |
| 1777229080 | 23.89° C | 36% | 1013 hPa | 0 mm | - | 767 W/m² | - |
| 1777228778 | 23.33° C | 37% | 1013 hPa | 0 mm | - | 751 W/m² | - |
| 1777228472 | 23.33° C | 37% | 1012.8 hPa | 0 mm | - | 754 W/m² | - |
| 1777228168 | 23.33° C | 36% | 1013.2 hPa | 0 mm | - | 754 W/m² | - |
| 1777227867 | 23.33° C | 36% | 1013.2 hPa | 0 mm | - | 774 W/m² | - |
| 1777227564 | 22.78° C | 37% | 1013.3 hPa | 0 mm | - | 690 W/m² | - |
| 1777227259 | 22.22° C | 39% | 1013.3 hPa | 0 mm | - | 337 W/m² | - |
| 1777226957 | 22.78° C | 39% | 1013.2 hPa | 0 mm | - | 240 W/m² | - |
| 1777226655 | 22.22° C | 39% | 1013.3 hPa | 0 mm | - | 834 W/m² | - |
| 1777226351 | 22.22° C | 39% | 1013.4 hPa | 0 mm | - | 810 W/m² | - |
| 1777226047 | 22.78° C | 39% | 1013.2 hPa | 0 mm | - | 174 W/m² | - |
| 1777225742 | 22.78° C | 38% | 1013.3 hPa | 0 mm | - | 829 W/m² | - |
| 1777225439 | 22.22° C | 39% | 1013.5 hPa | 0 mm | - | 788 W/m² | - |
| 1777225136 | 22.22° C | 39% | 1013.2 hPa | 0 mm | - | 176 W/m² | - |
| 1777224833 | 21.67° C | 40% | 1013.3 hPa | 0 mm | - | 230 W/m² | - |
| 1777224529 | 21.67° C | 41% | 1013 hPa | 0 mm | - | 706 W/m² | - |
| 1777224224 | 21.67° C | 40% | 1013.3 hPa | 0 mm | - | 693 W/m² | - |
| 1777223921 | 21.11° C | 42% | 1013.4 hPa | 0 mm | - | 354 W/m² | - |
| 1777223618 | 21.11° C | 42% | 1013.3 hPa | 0 mm | - | 183 W/m² | - |
| 1777223314 | 21.11° C | 43% | 1013.3 hPa | 0 mm | - | 299 W/m² | - |
| 1777223012 | 21.11° C | 43% | 1013.2 hPa | 0 mm | - | 209 W/m² | - |
| 1777222709 | 21.67° C | 42% | 1013.3 hPa | 0 mm | - | 382 W/m² | - |
* Rain latest hour (hover to see other rain measurements)
** Current wind speed in m/s (hover to see current wind gust speed)